Zurück zum Katalog

STARLINK-36315

AktivKommunikationSSO
NORAD 67731·PAYLOAD·🇺🇸 United States

Gestartet Feb 11, 2026 von Vandenberg Space Force Base

Loading…

Nächste Überflüge (nächste 24 Stunden)

TLE

AktuellSource: CelesTrak SupGP

Epoche: Sep 15, 2026, 04:10 UTC

1 67731C 26026L   26258.17409722 -.00026759  00000+0 -83069-3 0  2582
2 67731  97.2847 310.0732 0000831  91.0378 273.0218 15.33452119    17

Verfolge STARLINK-36315 in Echtzeit mit AllMySat

Download on the App Store